Regional Weather Roundup
Issued by NWS Sterling, VA

Home | Current Version | Previous Version | Text Only | Print | Product List | Glossary On
Versions: 1 2 3 4 5 6 7 8 9 10 11 12 13 14 15 16 17 18 19 20 21 22 23 24 25 26 27 28 29 30 31 32 33 34 35 36 37 38 39 40 41 42 43 44 45 46 47 48 49 50
000
ASUS41 KLWX 310110
RWRLWX

REGIONAL WEATHER ROUNDUP
NATIONAL WEATHER SERVICE BALTIMORE MD/WASHINGTON DC
800 PM EST FRI JAN 30 2015

Note: "FAIR" indicates few or no clouds below 12,000 feet
with no significant weather and/or obstructions to visibility.
 TC=TEMPERATURE CELSIUS

 * =Non NWS site. Station does not report precipitation (e.g. rain,
    snow, etc.), thunder, or fog.

DCZ001-MDZ009-015-VAZ040>042-051-053>054-310200-
WASHINGTON METRO

CITY           SKY/WX    TMP DP  RH WIND       PRES   REMARKS
WASHINGTON NAT CLEAR     28   6  39 NW22G38   30.23R WCI  14
DULLES         PTCLDY    23   6  48 NW33G41   30.23R WCI   5
ANDREWS AFB    CLEAR     26   8  46 W25G31    30.19R WCI  10
FT BELVOIR     CLEAR     26   8  46 NW24G33   30.23R WCI  11
QUANTICO       CLEAR     27   7  42 N21G37    30.27R WCI  13
COLLEGE PARK*  CLEAR     28   9  43 NW18G25   30.21R WCI  16
LEESBURG*      CLEAR     23  12  63 NW26G38   30.25R WCI   6
GAITHERSBURG*  CLEAR     21   7  53 NW21G29   30.24R WCI   6

$$

MDZ006>007-011-014-310200-
BALTIMORE METRO

CITY           SKY/WX    TMP DP  RH WIND       PRES   REMARKS
BWI AIRPORT    PTCLDY    24   8  50 NW18G37   30.18R WCI  10
MD SCIENCE CTR   N/A     26   7  44 MISG      30.18R
MARTIN STATE   CLEAR     27  12  54 W23G37    30.19R WCI  12
ANNAPOLIS      CLEAR     27  10  49 NW22G37   30.17R WCI  13
FORT MEADE*    CLEAR     27  10  50 NW15G24   30.22R WCI  15

$$

MDZ012-015-019>023-310200-
MARYLAND EASTERN SHORE

CITY           SKY/WX    TMP DP  RH WIND       PRES   REMARKS
OCEAN CITY     CLEAR     30  13  49 NW12G30   30.08R WCI  20
SALISBURY      CLEAR     32  13  45 NW16G23   30.10R WCI  21
BAY BRIDGE AP*   N/A     28  12  50 NW23G36   30.18R WCI  14
EASTON*        CLEAR     28  12  50 NW31G46   30.18  WCI  12

$$

MDZ017>025-310200-
SOUTHERN MARYLAND

CITY           SKY/WX    TMP DP  RH WIND       PRES   REMARKS
PATUXENT RIVER CLEAR     29   9  43 NW21G33   30.15R WCI  16
ST INIGOES     CLEAR     30   9  41 W24G32    30.15R WCI  16
LEONARDTOWN*   CLEAR     28   9  43 W15G26    30.18S WCI  17

$$

MDZ003>005-310200-
NORTH CENTRAL MARYLAND

CITY           SKY/WX    TMP DP  RH WIND       PRES   REMARKS
FREDERICK*     CLEAR     25   7  46 NW18G28   30.27R WCI  11
HAGERSTOWN APT MOCLDY    21   7  54 NW17      30.24R WCI   7
WESTMINSTER*   PTCLDY    21   7  53 NW21G28   30.17R WCI   6

$$

MDZ501>502-310200-
WESTERN MARYLAND

CITY           SKY/WX    TMP DP  RH WIND       PRES   REMARKS
OAKLAND*       FOG        9 N/A N/A NW10G17   30.15R VSB 1   WCI  -6
CUMBERLAND*    CLOUDY    21   5  49 N8G22     30.37R WCI  12

$$

VAZ025>031-310200-
SHENANDOAH VALLEY

CITY           SKY/WX    TMP DP  RH WIND       PRES   REMARKS
WINCHESTER*    MOCLDY    23   5  46 NW18G31   30.28S WCI   9
FRONT ROYAL*   FAIR      23   9  54 NW14G23   30.27R WCI  11
LURAY*         FAIR      27  10  50 N3G17     30.26R
NEW MARKET*    CLOUDY    23  10  57 NE7       30.25S
STAUNTON*      CLEAR     25   8  48 W5        30.25R
WAYNESBORO*    FAIR      23   7  48 NW7G22    30.20R

$$

WVZ021-048>050-054>055-310200-
EASTERN WEST VIRGINIA PANHANDLE

CITY           SKY/WX    TMP DP  RH WIND       PRES   REMARKS
MARTINSBURG    PTCLDY    22   5  48 NW22G39   30.29R WCI   6
PETERSBURG*    NOT AVBL

$$

VAZ036>039-050-310200-
CENTRAL FOOTHILLS

CITY           SKY/WX    TMP DP  RH WIND       PRES   REMARKS
CHARLOTTESVILL PTCLDY    28   5  37 VRB3      30.23R
CULPEPER*      CLEAR     27   9  46 N9G16     30.24R WCI  17
ORANGE*        CLEAR     30   9  40 NW12G21   30.25R WCI  21
GORDONSVILLE*  FAIR      28   6  39 NW13G18   30.22R WCI  18
WARRENTON*     FAIR      27  14  57 NW23G32   30.23R WCI  12

$$

VAZ055>057-310200-
NORTH AND CENTRAL PIEDMONT

CITY           SKY/WX    TMP DP  RH WIND       PRES   REMARKS
FREDERICKSBRG* CLEAR     30   9  42 NW13G33   30.23R WCI  20
STAFFORD*      CLEAR     27   5  39 NW24G33   30.27S WCI  12

$$

NCZ024-NYZ072-PAZ021-071-VAZ022-071-310200-
OTHER REGIONAL OBSERVATIONS

CITY           SKY/WX    TMP DP  RH WIND       PRES   REMARKS
NEW YORK CITY  CLEAR     25   8  48 NW14G30   30.02R WCI  13
PHILADELPHIA   MOCLDY    30  11  45 NW26G37   30.08R WCI  16
PITTSBURGH     FLURRIES  14   4  64 NW14      30.36S WCI  -1
ROANOKE        PTCLDY    26   8  46 NW16G25   30.28S WCI  14
RICHMOND       CLEAR     32   9  38 NW14G21   30.20R WCI  22
RALEIGH        CLEAR     36   7  29 VRB6      30.25R

$$

ANZ530>537-310200-
MARINE OBSERVATIONS

STATION/POSITION TIME  TEMP    WIND        PRES
                       AIR SEA DIR/SP/G
                 (UTC) (F)     (DEG/KT/KT) (MB)
THOMAS PT LIGHT  0100   27 36  320/ 32/ 36 1021.7R
BALT KEY BRIDGE  0100   27     290/ 20/ 24 1021.9R
COVE POINT       0100   29     330/ 29/ 39 1020.6R
LEWISETTA        0100   31 36  320/ 22/ 28 1021.5R
SOLOMONS ISLAND  0100      37                N/A
PINEY POINT      0100          340/ 32/ 37   N/A

$$



USA.gov is the U.S. government's official web portal to all federal, state and local government web resources and services.